Location: ????????
(55.3975°N, 38.2844°E)
Time: 05:12:30
(UTC+00:00)

BlueWalker 3 - Pass Details

Date: 17 August 2024
Orbit: 476 x 487 km, 53.2° (Epoch: 08 September)

Event Time Altitude Azimuth Distance (km) Brightness Sun altitude
Exits shadow 00:38:47 - 269° (W) 1,792 4.3 -10.8°
Reaches altitude 10° 00:39:03 10° 269° (W) 1,687 4.2 -10.8°
Maximum altitude 00:42:48 58° 190° (S) 580 2.0 -10.4°
Drops below altitude 10° 00:46:33 10° 111° (ESE) 1,688 5.0 -10.0°
Sets 00:48:44 0° 107° (ESE) 2,569 6.0 -9.8°
